"Pseudo-MPEC" for P11owBj

Created 2021 Nov 28 18:07:20 UT using Find_Orb

Click here for an explanation of pseudo-MPECs

 
 Astrometry: 
     P11owBj  C2021 11 08]BkofIxZ`VadYIAstrometry0ryIn+MI#]ja)TELEn8==jR$9BY@F51
     P11owBj  C2021 11 08_]PWredacted;6SKBNE=r,clickGL+sKyehq/@u/4=hereB.V%83F51
     P11owBj  C2021 11 08pk8lKf7ifor8explanationw6d]/5\NXS]R(FfhNVHfj1\0]I!LaF51

Station data:
(F51) Pan-STARRS 1, Haleakala  (N20.707235 W156.255910)  US/Hawaii.
   Observers N. Primak, A. Schultz, S. Watters, J. Thiel, T. Goggia. Measurer
   PS1 Science Consortium. 1.8-m Ritchey-Chrétien + CCD.

Orbital elements:  P11owBj
   Perihelion 2021 Nov 3.840570 +/- 39.1764 TT = 20:10:25 (JD 2459522.340570)
Epoch 2021 Nov  8.0 TT = JDT 2459526.5   Earth MOID: 0.2922   Ma: 0.0146
M   1.06116153 +/- 20.302027        (J2000 ecliptic)          AutoNEOCP
n   0.25512185 +/- 0.267512         Peri.  229.16325 +/- 99.000412
a   2.46209195 +/- 1.72108          Node   169.78529 +/- 52.685382
e   0.4853114 +/- 0.252276          Incl.    7.32049 +/- 6.6173690
P   3.86                   H 23.1   G  0.15   U 11.9  SR
q 1.26721052 +/- 0.28203    Q 3.65697338 +/- 54.9789
From 3 observations 2021 Nov. 8 (32.7 min); mean residual 0".31
Residuals in arcseconds: 
211108 F51  .12+  .28-    211108 F51  .24-  .57+    211108 F51  .12+  .27-    

Ephemerides (geocentric):
Date (UTC) HH   RA              Dec         delta   r     elong  mag " sig PA
---- -- -- --  -------------   -----------  ------ ------ -----  --- ---- ---
2021 11 28 18  02 55 14.812   -09 43 30.46  .36300 1.2945 142.8 22.6  50d 174
2021 11 28 19  02 55 18.188   -09 42 58.45  .36316 1.2945 142.8 22.6  50d 174
2021 11 28 20  02 55 21.565   -09 42 26.37  .36332 1.2946 142.8 22.6  50d 174
2021 11 28 21  02 55 24.942   -09 41 54.24  .36348 1.2947 142.8 22.6  50d 174
2021 11 28 22  02 55 28.320   -09 41 22.04  .36364 1.2948 142.8 22.6  50d 174
2021 11 28 23  02 55 31.699   -09 40 49.79  .36379 1.2949 142.7 22.6  50d 174
2021 11 29 00  02 55 35.078   -09 40 17.48  .36395 1.2950 142.7 22.6  50d 174
2021 11 29 01  02 55 38.457   -09 39 45.11  .36411 1.2951 142.7 22.7  50d 174
2021 11 29 02  02 55 41.838   -09 39 12.69  .36427 1.2952 142.7 22.7  50d 174
2021 11 29 03  02 55 45.218   -09 38 40.20  .36443 1.2953 142.7 22.7  50d 174
2021 11 29 04  02 55 48.599   -09 38 07.66  .36459 1.2954 142.7 22.7  50d 174
2021 11 29 05  02 55 51.981   -09 37 35.06  .36475 1.2954 142.7 22.7  51d 174
2021 11 29 06  02 55 55.364   -09 37 02.40  .36491 1.2955 142.6 22.7  51d 174
2021 11 29 07  02 55 58.746   -09 36 29.68  .36507 1.2956 142.6 22.7  51d 174
2021 11 29 08  02 56 02.130   -09 35 56.91  .36523 1.2957 142.6 22.7  51d 174
2021 11 29 09  02 56 05.514   -09 35 24.08  .36539 1.2958 142.6 22.7  51d 174
2021 11 29 10  02 56 08.898   -09 34 51.19  .36555 1.2959 142.6 22.7  51d 174
2021 11 29 11  02 56 12.284   -09 34 18.24  .36571 1.2960 142.6 22.7  51d 174
2021 11 29 12  02 56 15.669   -09 33 45.23  .36587 1.2961 142.5 22.7  51d 174
2021 11 29 13  02 56 19.056   -09 33 12.17  .36603 1.2962 142.5 22.7  51d 174
2021 11 29 14  02 56 22.442   -09 32 39.05  .36619 1.2963 142.5 22.7  51d 174
2021 11 29 15  02 56 25.830   -09 32 05.88  .36635 1.2964 142.5 22.7  51d 174
2021 11 29 16  02 56 29.218   -09 31 32.64  .36651 1.2965 142.5 22.7  51d 174
2021 11 29 17  02 56 32.606   -09 30 59.35  .36667 1.2965 142.5 22.7  51d 174
2021 11 29 18  02 56 35.996   -09 30 26.01  .36684 1.2966 142.5 22.7  51d 174
2021 11 29 19  02 56 39.385   -09 29 52.60  .36700 1.2967 142.4 22.7  51d 174
2021 11 29 20  02 56 42.776   -09 29 19.14  .36716 1.2968 142.4 22.7  51d 174
2021 11 29 21  02 56 46.167   -09 28 45.63  .36732 1.2969 142.4 22.7  51d 174
2021 11 29 22  02 56 49.558   -09 28 12.05  .36748 1.2970 142.4 22.7  51d 174
2021 11 29 23  02 56 52.950   -09 27 38.42  .36765 1.2971 142.4 22.7  51d 174
2021 11 30 00  02 56 56.343   -09 27 04.74  .36781 1.2972 142.4 22.7  51d 174
2021 11 30 01  02 56 59.736   -09 26 30.99  .36797 1.2973 142.4 22.7  51d 174
2021 11 30 02  02 57 03.130   -09 25 57.20  .36814 1.2974 142.3 22.7  51d 174
2021 11 30 03  02 57 06.525   -09 25 23.34  .36830 1.2975 142.3 22.7  51d 174
2021 11 30 04  02 57 09.920   -09 24 49.43  .36846 1.2976 142.3 22.7  51d 174
2021 11 30 05  02 57 13.315   -09 24 15.47  .36863 1.2977 142.3 22.7  51d 174
2021 11 30 06  02 57 16.712   -09 23 41.44  .36879 1.2978 142.3 22.7  51d 174
2021 11 30 07  02 57 20.109   -09 23 07.37  .36895 1.2979 142.3 22.7  51d 174
2021 11 30 08  02 57 23.506   -09 22 33.23  .36912 1.2980 142.3 22.7  51d 174
2021 11 30 09  02 57 26.904   -09 21 59.05  .36928 1.2981 142.2 22.7  51d 174
2021 11 30 10  02 57 30.303   -09 21 24.80  .36945 1.2981 142.2 22.7  51d 174
2021 11 30 11  02 57 33.702   -09 20 50.50  .36961 1.2982 142.2 22.7  51d 174
2021 11 30 12  02 57 37.102   -09 20 16.15  .36978 1.2983 142.2 22.7  51d 174
2021 11 30 13  02 57 40.503   -09 19 41.74  .36994 1.2984 142.2 22.7  51d 174
2021 11 30 14  02 57 43.904   -09 19 07.28  .37011 1.2985 142.2 22.7  51d 174
2021 11 30 15  02 57 47.306   -09 18 32.76  .37027 1.2986 142.2 22.7  51d 174
2021 11 30 16  02 57 50.708   -09 17 58.18  .37044 1.2987 142.1 22.7  51d 174
2021 11 30 17  02 57 54.111   -09 17 23.55  .37060 1.2988 142.1 22.7  51d 174